Zurück zum Katalog

COSMOS 2251 DEB

AktivLEO
NORAD 34129·DEBRIS·🇷🇺 Russia

Gestartet Jun 16, 1993 von Plesetsk Cosmodrome

Loading…

Nächste Überflüge (nächste 24 Stunden)

TLE

AktuellSource: Space-Track

Epoche: Sep 14, 2026, 03:24 UTC

1 34129U 93036LA  26257.14230922  .00004416  00000-0  58370-3 0  9996
2 34129  74.0323 158.5328 0033729 175.5461 184.6022 14.79903496653677

Verfolge COSMOS 2251 DEB in Echtzeit mit AllMySat

Download on the App Store